Location: Kalberh�ni
(46.4610°N, 7.2453°E)
Time: 08:31:03
(UTC+00:00)

deb Kosmos-2227 - Pass Details

Date: 10 August 2022
Orbit: 774 x 865 km, 70.9° (Epoch: 26 September)

Event Time Altitude Azimuth Distance (km) Brightness Sun altitude
Rises 01:30:15 0° 323° (NW) 3,340 ? -22.9°
Reaches altitude 10° 01:32:59 10° 312° (NW) 2,419 ? -22.6°
Enters shadow 01:36:37 26° 272° (W) 1,599 ? -22.3°
